When you browse on this site, cookies collect data to enhance your experience and personalize the content and advertising you see.
Visit our Privacy Policy to learn more. By continuing to use the site, you agree to this use of cookies and data.
  • In Hungary
  • List of Countries
  • For 7 days
  • Water Temperature
  • Satellite Maps
  • Weather Map
  • News
  • Weather Widgets
  • user-avatar
    Login

    Hourly Weather Napoli

    Today, 19 March, Tuesday

    Time Temperature Precipitation Wind Pressure Humidity
    00:00 +14°C° 0 mm 1 mps 759 mmHg 85%
    01:00 +13°C° 0 mm 1 mps 759 mmHg 84%
    02:00 +13°C° 0 mm 1 mps 759 mmHg 84%
    03:00 +13°C° 0 mm 1 mps 759 mmHg 84%
    04:00 +13°C° 0 mm 1 mps 759 mmHg 84%
    05:00 +13°C° 0 mm 1 mps 759 mmHg 84%
    06:00 +12°C° 0 mm 1 mps 759 mmHg 84%
    07:00 +12°C° 0 mm 2 mps 759 mmHg 78%
    08:00 +14°C° 0 mm 2 mps 759 mmHg 68%
    09:00 +15°C° 0 mm 2 mps 759 mmHg 57%
    10:00 +17°C° 0 mm 2 mps 759 mmHg 46%
    11:00 +18°C° 0 mm 2 mps 759 mmHg 43%
    12:00 +19°C° 0 mm 2 mps 759 mmHg 40%
    13:00 +19°C° 0 mm 3 mps 760 mmHg 40%
    14:00 +19°C° 0 mm 3 mps 760 mmHg 43%
    15:00 +18°C° 0 mm 3 mps 760 mmHg 46%
    16:00 +18°C° 0 mm 4 mps 759 mmHg 49%
    17:00 +17°C° 0 mm 3 mps 760 mmHg 53%
    18:00 +16°C° 0 mm 3 mps 760 mmHg 57%
    19:00 +16°C° 0 mm 3 mps 761 mmHg 61%
    20:00 +14°C° 0 mm 3 mps 761 mmHg 62%
    21:00 +14°C° 0 mm 3 mps 761 mmHg 63%
    22:00 +13°C° 0 mm 4 mps 762 mmHg 65%
    23:00 +13°C° 0 mm 4 mps 762 mmHg 65%

    Tomorrow, 20 March, Wednesday

    Time Temperature Precipitation Wind Pressure Humidity
    00:00 +12°C° 0 mm 4 mps 762 mmHg 66%
    01:00 +12°C° 0 mm 5 mps 762 mmHg 67%
    02:00 +12°C° 0 mm 5 mps 762 mmHg 67%
    03:00 +12°C° 0 mm 5 mps 762 mmHg 66%
    04:00 +10°C° 0 mm 5 mps 762 mmHg 66%
    05:00 +10°C° 0 mm 5 mps 762 mmHg 66%
    06:00 +10°C° 0 mm 5 mps 763 mmHg 65%
    07:00 +10°C° 0 mm 5 mps 763 mmHg 65%
    08:00 +12°C° 0 mm 5 mps 763 mmHg 61%
    09:00 +13°C° 0 mm 5 mps 763 mmHg 57%
    10:00 +15°C° 0 mm 4 mps 764 mmHg 53%
    11:00 +15°C° 0 mm 4 mps 764 mmHg 51%
    12:00 +16°C° 0 mm 5 mps 764 mmHg 48%
    13:00 +17°C° 0 mm 5 mps 764 mmHg 45%
    14:00 +17°C° 0 mm 5 mps 764 mmHg 47%
    15:00 +16°C° 0 mm 6 mps 764 mmHg 48%
    16:00 +16°C° 0 mm 6 mps 764 mmHg 49%
    17:00 +15°C° 0 mm 6 mps 764 mmHg 51%
    18:00 +14°C° 0 mm 6 mps 764 mmHg 53%
    19:00 +13°C° 0 mm 6 mps 764 mmHg 55%
    20:00 +13°C° 0 mm 6 mps 764 mmHg 56%
    21:00 +11°C° 0 mm 6 mps 765 mmHg 56%
    22:00 +11°C° 0 mm 6 mps 765 mmHg 56%
    23:00 +11°C° 0 mm 6 mps 765 mmHg 57%

    Day after tomorrow, 21 March, Thursday

    Time Temperature Precipitation Wind Pressure Humidity
    00:00 +10°C° 0 mm 6 mps 765 mmHg 58%
    01:00 +10°C° 0 mm 6 mps 765 mmHg 60%
    02:00 +10°C° 0 mm 6 mps 765 mmHg 60%
    03:00 +10°C° 0 mm 6 mps 765 mmHg 61%
    04:00 +10°C° 0 mm 6 mps 765 mmHg 62%
    05:00 +10°C° 0 mm 6 mps 765 mmHg 62%
    06:00 +10°C° 0 mm 7 mps 765 mmHg 61%
    07:00 +10°C° 0 mm 7 mps 765 mmHg 61%
    08:00 +11°C° 0 mm 7 mps 765 mmHg 57%
    09:00 +14°C° 0 mm 7 mps 765 mmHg 53%
    10:00 +15°C° 0 mm 7 mps 766 mmHg 49%
    11:00 +16°C° 0 mm 7 mps 765 mmHg 46%
    12:00 +18°C° 0 mm 7 mps 765 mmHg 44%
    13:00 +20°C° 0 mm 7 mps 765 mmHg 42%
    14:00 +20°C° 0 mm 7 mps 765 mmHg 43%
    15:00 +18°C° 0 mm 7 mps 765 mmHg 44%
    16:00 +18°C° 0 mm 7 mps 765 mmHg 45%
    17:00 +17°C° 0 mm 6 mps 765 mmHg 48%
    18:00 +16°C° 0 mm 6 mps 765 mmHg 51%
    19:00 +15°C° 0 mm 6 mps 766 mmHg 54%
    20:00 +14°C° 0 mm 6 mps 766 mmHg 54%
    21:00 +13°C° 0 mm 6 mps 767 mmHg 54%
    22:00 +13°C° 0 mm 5 mps 767 mmHg 54%
    23:00 +12°C° 0 mm 5 mps 767 mmHg 54%

    22 March, Friday

    Time Temperature Precipitation Wind Pressure Humidity
    00:00 +12°C° 0 mm 5 mps 767 mmHg 55%
    01:00 +12°C° 0 mm 5 mps 767 mmHg 56%
    02:00 +12°C° 0 mm 5 mps 767 mmHg 56%
    03:00 +12°C° 0 mm 5 mps 767 mmHg 56%
    04:00 +12°C° 0 mm 5 mps 766 mmHg 56%
    05:00 +11°C° 0 mm 6 mps 766 mmHg 57%
    06:00 +11°C° 0 mm 6 mps 767 mmHg 58%
    07:00 +11°C° 0 mm 6 mps 767 mmHg 59%
    08:00 +13°C° 0 mm 6 mps 767 mmHg 55%
    09:00 +15°C° 0 mm 5 mps 767 mmHg 52%
    10:00 +17°C° 0 mm 5 mps 767 mmHg 48%
    11:00 +19°C° 0 mm 5 mps 766 mmHg 46%
    12:00 +20°C° 0 mm 4 mps 766 mmHg 44%
    13:00 +21°C° 0 mm 4 mps 766 mmHg 41%
    14:00 +21°C° 0 mm 4 mps 766 mmHg 43%
    15:00 +21°C° 0 mm 4 mps 765 mmHg 44%
    16:00 +21°C° 0 mm 4 mps 765 mmHg 46%
    17:00 +19°C° 0 mm 4 mps 765 mmHg 50%
    18:00 +18°C° 0 mm 4 mps 766 mmHg 54%
    19:00 +17°C° 0 mm 4 mps 766 mmHg 59%
    20:00 +17°C° 0 mm 4 mps 766 mmHg 61%
    21:00 +15°C° 0 mm 4 mps 766 mmHg 63%
    22:00 +14°C° 0 mm 3 mps 767 mmHg 65%
    23:00 +14°C° 0 mm 3 mps 766 mmHg 64%

    23 March, Saturday

    Time Temperature Precipitation Wind Pressure Humidity
    00:00 +13°C° 0 mm 3 mps 766 mmHg 64%
    01:00 +13°C° 0 mm 3 mps 766 mmHg 64%
    02:00 +13°C° 0 mm 3 mps 766 mmHg 62%
    03:00 +12°C° 0 mm 3 mps 766 mmHg 61%
    04:00 +13°C° 0 mm 2 mps 765 mmHg 59%
    05:00 +13°C° 0 mm 2 mps 765 mmHg 59%
    06:00 +13°C° 0 mm 2 mps 765 mmHg 59%
    07:00 +13°C° 0 mm 2 mps 766 mmHg 58%
    08:00 +15°C° 0 mm 2 mps 766 mmHg 52%
    09:00 +16°C° 0 mm 2 mps 765 mmHg 46%
    10:00 +18°C° 0 mm 2 mps 765 mmHg 40%
    11:00 +21°C° 0 mm 1 mps 765 mmHg 37%
    12:00 +22°C° 0 mm 1 mps 765 mmHg 33%
    13:00 +23°C° 0 mm 1 mps 765 mmHg 30%
    14:00 +23°C° 0 mm 1 mps 765 mmHg 31%
    15:00 +23°C° 0 mm 2 mps 764 mmHg 33%
    16:00 +22°C° 0 mm 3 mps 764 mmHg 34%
    17:00 +21°C° 0 mm 3 mps 764 mmHg 39%
    18:00 +20°C° 0 mm 3 mps 765 mmHg 44%
    19:00 +19°C° 0 mm 2 mps 765 mmHg 48%
    20:00 +18°C° 0 mm 2 mps 765 mmHg 52%
    21:00 +17°C° 0 mm 2 mps 765 mmHg 56%
    22:00 +17°C° 0 mm 2 mps 765 mmHg 60%
    23:00 +16°C° 0 mm 2 mps 765 mmHg 62%

    24 March, Sunday

    Time Temperature Precipitation Wind Pressure Humidity
    00:00 +16°C° 0 mm 1 mps 765 mmHg 64%
    01:00 +15°C° 0 mm 1 mps 765 mmHg 66%
    02:00 +15°C° 0 mm 1 mps 765 mmHg 67%
    03:00 +15°C° 0 mm 1 mps 765 mmHg 67%
    04:00 +14°C° 0 mm 1 mps 764 mmHg 67%
    05:00 +14°C° 0 mm 1 mps 765 mmHg 66%
    06:00 +14°C° 0 mm 1 mps 765 mmHg 66%
    07:00 +14°C° 0 mm 1 mps 765 mmHg 65%
    08:00 +16°C° 0 mm 1 mps 765 mmHg 59%
    09:00 +19°C° 0 mm 1 mps 764 mmHg 53%
    10:00 +20°C° 0 mm 1 mps 764 mmHg 48%
    11:00 +21°C° 0 mm 1 mps 764 mmHg 45%
    12:00 +21°C° 0 mm 2 mps 764 mmHg 43%
    13:00 +21°C° 0 mm 2 mps 763 mmHg 40%
    14:00 +21°C° 0 mm 3 mps 763 mmHg 42%
    15:00 +21°C° 0 mm 3 mps 763 mmHg 44%
    16:00 +20°C° 0 mm 3 mps 762 mmHg 47%
    17:00 +19°C° 0 mm 3 mps 762 mmHg 51%
    18:00 +18°C° 0 mm 3 mps 762 mmHg 56%
    19:00 +17°C° 0 mm 2 mps 763 mmHg 61%
    20:00 +17°C° 0 mm 2 mps 763 mmHg 62%
    21:00 +16°C° 0 mm 1 mps 763 mmHg 64%
    22:00 +16°C° 0 mm 1 mps 763 mmHg 65%
    23:00 +16°C° 0 mm 1 mps 763 mmHg 66%
    Show more